Location: Mound City (historical)
(34.0564°N, 117.2656°W)
Time: 19:11:09
(UTC+00:00)

CBERS-1 - Visible Passes

Search period start: 05 December 2024 00:00
Search period end: 15 December 2024 00:00
Orbit: 766 x 773 km, 98.8° (Epoch: 05 December)

Date Brightness Start Highest point End Pass type
(mag) Time Alt. Az. Time Alt. Az. Time Alt. Az.
05 Dec 7.5 01:29:04 10° WSW 01:30:06 11° W 01:31:09 10° W visible
05 Dec 5.8 11:59:35 10° NE 12:04:02 30° E 12:08:27 10° SSE visible
05 Dec 4.9 13:38:43 10° NNW 13:42:54 26° WNW 13:47:04 10° WSW visible
06 Dec 6.9 11:26:11 10° ENE 11:28:22 13° E 11:30:33 10° ESE visible
06 Dec 4.0 13:02:43 10° N 13:07:43 59° WNW 13:12:42 10° SSW visible
07 Dec 4.5 12:27:20 10° NNE 12:32:22 59° ESE 12:37:22 10° S visible
07 Dec 5.5 14:08:16 10° NNW 14:10:50 14° WNW 14:13:24 10° W visible
08 Dec 7.2 01:20:32 10° WSW 01:22:53 13° W 01:25:14 10° WNW visible
08 Dec 6.1 11:52:39 10° NE 11:56:50 25° E 12:00:58 10° SSE visible
08 Dec 4.7 13:31:23 10° N 13:35:49 31° WNW 13:40:13 10° SW visible
09 Dec 7.1 11:20:36 10° E 11:21:07 10° E 11:21:40 10° E visible
09 Dec 3.8 12:55:30 10° N 13:00:35 71° WNW 13:05:38 10° SSW visible
10 Dec 4.8 12:20:15 10° NNE 12:25:11 49° E 12:30:05 10° S visible
10 Dec 5.4 14:00:37 10° NNW 14:03:46 17° WNW 14:06:55 10° WSW visible
11 Dec 7.0 01:12:34 10° SW 01:15:38 16° W 01:18:43 10° WNW visible
11 Dec 6.3 11:45:48 10° NE 11:49:37 21° E 11:53:24 10° SE visible
11 Dec 4.5 13:24:03 10° N 13:28:41 37° WNW 13:33:18 10° SW visible
12 Dec 3.9 12:48:18 10° NNE 12:53:25 85° WNW 12:58:30 10° SSW visible
13 Dec 5.2 12:13:11 10° NNE 12:17:59 41° E 12:22:44 10° S visible
13 Dec 5.2 13:53:04 10° NNW 13:56:41 20° WNW 14:00:16 10° WSW visible
14 Dec 6.9 01:04:48 10° SW 01:08:24 19° W 01:12:01 10° NW visible
14 Dec 6.6 11:39:01 10° NE 11:42:22 18° E 11:45:42 10° SE visible
14 Dec 4.2 13:16:44 10° N 13:21:33 44° WNW 13:26:20 10° SW visible
